GSAT0217 (PRN E27)

Last updated on Mon Jul 22 2024 00:03:08 GMT+0000 (Coordinated Universal Time)

1 43057U 17079C 24203.25423142 .00000080 00000+0 00000+0 0 9993 2 43057 55.3261 240.6591 0005190 280.1261 79.9103 1.70474300 41128

Satellite not in orbit

GSAT0217 (PRN E27)